QPF
0.00 0.00 0.00 0.00 0.00 0.00 0.00 0.00 0.00 0.00 0.00 0.00 0.00 0.00 0.00 0.00 0.00 0.00 0.00 0.00 0.00 0.00 0.00 0.00 0.01 0.01 0.02 0.02 0.02 0.02 0.02 0.03 0.05 0.05 0.04 0.04 0.04 0.03 0.02 0.01 0.03 0.11 0.24
0.00 0.00 0.00 0.00 0.00 0.00 0.00 0.00 0.00 0.00 0.00 0.00 0.00 0.00 0.01 0.00 0.00 0.00 0.01 0.01 0.01 0.01 0.02 0.03 0.03 0.03 0.02 0.02 0.02 0.02 0.03 0.05 0.10 0.12 0.13 0.12 0.12 0.07 0.05 0.03 0.03 0.06 0.15
0.00 0.00 0.00 0.00 0.00 0.00 0.00 0.00 0.00 0.00 0.00 0.00 0.00 0.01 0.01 0.01 0.01 0.01 0.02 0.03 0.03 0.03 0.03 0.03 0.03 0.04 0.04 0.05 0.07 0.09 0.10 0.12 0.17 0.20 0.21 0.20 0.18 0.10 0.08 0.07 0.06 0.04 0.08
0.00 0.00 0.00 0.00 0.00 0.00 0.00 0.00 0.00 0.00 0.00 0.01 0.01 0.01 0.01 0.01 0.02 0.03 0.03 0.03 0.03 0.04 0.06 0.07 0.08 0.10 0.09 0.10 0.12 0.13 0.13 0.14 0.17 0.22 0.23 0.23 0.21 0.13 0.08 0.10 0.09 0.06 0.10
0.00 0.00 0.00 0.00 0.00 0.00 0.00 0.00 0.00 0.01 0.01 0.01 0.00 0.00 0.00 0.01 0.02 0.02 0.02 0.03 0.05 0.06 0.07 0.08 0.11 0.12 0.12 0.11 0.10 0.09 0.12 0.17 0.18 0.22 0.24 0.20 0.17 0.11 0.07 0.07 0.07 0.06 0.12
0.00 0.00 0.00 0.00 0.00 0.00 0.00 0.01 0.01 0.01 0.00 0.00 0.00 0.00 0.01 0.01 0.03 0.04 0.04 0.05 0.07 0.08 0.08 0.07 0.06 0.07 0.08 0.08 0.10 0.11 0.12 0.21 0.35 0.38 0.27 0.20 0.12 0.06 0.04 0.03 0.06 0.09 0.11
0.00 0.00 0.00 0.00 0.00 0.00 0.01 0.02 0.02 0.01 0.00 0.00 0.00 0.00 0.00 0.01 0.03 0.04 0.05 0.05 0.06 0.07 0.07 0.05 0.03 0.03 0.04 0.04 0.05 0.09 0.13 0.18 0.27 0.37 0.30 0.17 0.14 0.07 0.05 0.06 0.11 0.17 0.17
0.00 0.00 0.00 0.00 0.01 0.02 0.03 0.02 0.01 0.01 0.01 0.00 0.00 0.00 0.00 0.01 0.02 0.02 0.03 0.04 0.05 0.06 0.06 0.04 0.03 0.03 0.04 0.06 0.05 0.05 0.08 0.11 0.17 0.21 0.28 0.17 0.10 0.09 0.08 0.11 0.16 0.17 0.16
0.01 0.01 0.01 0.02 0.02 0.02 0.01 0.01 0.01 0.01 0.01 0.01 0.00 0.00 0.00 0.00 0.01 0.01 0.02 0.02 0.03 0.05 0.04 0.03 0.03 0.03 0.06 0.08 0.08 0.09 0.11 0.16 0.24 0.32 0.32 0.23 0.16 0.15 0.14 0.15 0.15 0.12 0.09
0.02 0.02 0.03 0.02 0.01 0.01 0.01 0.01 0.01 0.02 0.02 0.01 0.00 0.00 0.00 0.00 0.00 0.00 0.01 0.01 0.02 0.02 0.02 0.03 0.04 0.03 0.06 0.07 0.09 0.10 0.10 0.16 0.17 0.22 0.25 0.23 0.18 0.20 0.23 0.19 0.14 0.07 0.05
0.02 0.02 0.02 0.02 0.00 0.00 0.00 0.01 0.01 0.00 0.00 0.00 0.00 0.00 0.00 0.00 0.00 0.00 0.00 0.00 0.00 0.00 0.01 0.02 0.05 0.04 0.05 0.09 0.11 0.09 0.11 0.15 0.14 0.14 0.13 0.14 0.13 0.12 0.13 0.16 0.13 0.06 0.02
0.01 0.01 0.00 0.00 0.00 0.00 0.00 0.00 0.00 0.00 0.00 0.00 0.00 0.00 0.00 0.00 0.00 0.00 0.00 0.00 0.00 0.00 0.00 0.02 0.06 0.06 0.05 0.07 0.09 0.11 0.13 0.15 0.13 0.12 0.11 0.10 0.08 0.08 0.08 0.08 0.07 0.05 0.04
0.00 0.00 0.00 0.00 0.00 0.00 0.00 0.00 0.00 0.00 0.00 0.00 0.00 0.00 0.00 0.00 0.00 0.00 0.00 0.00 0.00 0.00 0.00 0.01 0.04 0.04 0.03 0.05 0.08 0.10 0.11 0.10 0.13 0.12 0.11 0.11 0.10 0.09 0.09 0.09 0.07 0.06 0.06
0.00 0.00 0.00 0.00 0.00 0.00 0.00 0.00 0.00 0.00 0.00 0.00 0.00 0.00 0.00 0.00 0.00 0.00 0.00 0.00 0.00 0.00 0.00 0.01 0.04 0.06 0.04 0.04 0.05 0.06 0.05 0.05 0.06 0.09 0.11 0.13 0.12 0.10 0.09 0.07 0.05 0.04 0.03
0.00 0.00 0.00 0.00 0.00 0.00 0.00 0.00 0.00 0.00 0.00 0.00 0.00 0.00 0.00 0.00 0.00 0.00 0.00 0.00 0.00 0.00 0.00 0.00 0.03 0.07 0.06 0.05 0.06 0.06 0.04 0.03 0.02 0.03 0.06 0.10 0.12 0.10 0.06 0.04 0.02 0.01 0.01
0.00 0.00 0.00 0.00 0.00 0.00 0.00 0.00 0.00 0.00 0.00 0.00 0.00 0.00 0.00 0.00 0.00 0.00 0.00 0.00 0.00 0.00 0.00 0.00 0.01 0.03 0.05 0.09 0.13 0.11 0.07 0.03 0.02 0.02 0.03 0.06 0.06 0.04 0.03 0.02 0.02 0.01 0.01
0.00 0.00 0.00 0.00 0.00 0.00 0.00 0.00 0.00 0.00 0.00 0.00 0.00 0.00 0.00 0.00 0.00 0.00 0.00 0.00 0.00 0.00 0.00 0.01 0.01 0.01 0.03 0.08 0.14 0.15 0.12 0.08 0.04 0.03 0.03 0.02 0.02 0.01 0.01 0.02 0.02 0.01 0.01
0.00 0.00 0.00 0.00 0.00 0.00 0.00 0.00 0.00 0.00 0.00 0.00 0.00 0.00 0.00 0.00 0.00 0.00 0.00 0.00 0.00 0.01 0.01 0.01 0.01 0.01 0.01 0.03 0.08 0.11 0.12 0.11 0.08 0.06 0.04 0.02 0.02 0.02 0.02 0.01 0.00 0.00 0.00
0.00 0.00 0.00 0.00 0.00 0.00 0.00 0.00 0.00 0.00 0.00 0.00 0.00 0.00 0.00 0.00 0.00 0.00 0.00 0.01 0.01 0.01 0.01 0.02 0.02 0.02 0.01 0.01 0.03 0.06 0.08 0.08 0.09 0.07 0.05 0.05 0.04 0.02 0.01 0.00 0.00 0.00 0.00
0.00 0.00 0.00 0.00 0.00 0.00 0.00 0.00 0.00 0.00 0.00 0.00 0.00 0.00 0.00 0.00 0.00 0.01 0.01 0.01 0.01 0.02 0.02 0.02 0.02 0.02 0.02 0.02 0.02 0.03 0.06 0.07 0.08 0.09 0.08 0.07 0.05 0.02 0.00 0.00 0.00 0.00 0.00
0.00 0.00 0.00 0.00 0.00 0.00 0.00 0.00 0.00 0.00 0.00 0.00 0.00 0.00 0.00 0.00 0.00 0.01 0.02 0.02 0.02 0.03 0.03 0.03 0.03 0.02 0.02 0.02 0.02 0.03 0.06 0.07 0.09 0.13 0.13 0.10 0.05 0.01 0.00 0.00 0.00 0.00 0.00
0.00 0.00 0.00 0.00 0.00 0.00 0.00 0.00 0.00 0.00 0.00 0.00 0.00 0.00 0.00 0.00 0.00 0.01 0.01 0.02 0.03 0.03 0.03 0.03 0.03 0.03 0.03 0.02 0.02 0.02 0.05 0.07 0.11 0.16 0.16 0.12 0.05 0.01 0.00 0.00 0.00 0.00 0.00
0.00 0.00 0.00 0.00 0.00 0.00 0.00 0.00 0.00 0.00 0.00 0.00 0.00 0.00 0.00 0.00 0.00 0.01 0.01 0.02 0.02 0.03 0.03 0.03 0.03 0.03 0.03 0.02 0.02 0.02 0.03 0.07 0.11 0.15 0.15 0.10 0.04 0.01 0.00 0.00 0.00 0.00 0.00
0.00 0.00 0.00 0.00 0.00 0.00 0.00 0.00 0.00 0.00 0.00 0.00 0.00 0.00 0.00 0.00 0.00 0.01 0.01 0.02 0.02 0.03 0.03 0.04 0.04 0.04 0.03 0.02 0.02 0.02 0.03 0.05 0.09 0.12 0.10 0.07 0.04 0.02 0.00 0.00 0.00 0.00 0.00
0.00 0.00 0.00 0.00 0.00 0.00 0.00 0.00 0.00 0.00 0.00 0.00 0.00 0.00 0.00 0.00 0.01 0.01 0.02 0.02 0.03 0.03 0.04 0.04 0.05 0.06 0.05 0.03 0.02 0.02 0.02 0.05 0.10 0.10 0.08 0.06 0.04 0.02 0.01 0.01 0.00 0.00 0.00
0.00 0.00 0.00 0.00 0.00 0.00 0.00 0.00 0.00 0.00 0.00 0.00 0.00 0.00 0.00 0.00 0.01 0.02 0.02 0.03 0.03 0.03 0.04 0.06 0.07 0.07 0.06 0.04 0.02 0.02 0.02 0.04 0.07 0.09 0.06 0.04 0.03 0.02 0.02 0.03 0.01 0.00 0.00
MSLP
1021.01 1020.86 1020.66 1020.42 1020.12 1019.77 1019.38 1018.95 1018.50 1018.01 1017.51 1016.98 1016.42 1015.82 1015.21 1014.57 1013.94 1013.33 1012.76 1012.23 1011.76 1011.34 1010.94 1010.57 1010.19 1009.79 1009.37 1008.93 1008.52 1008.14 1007.84 1007.65 1007.58 1007.64 1007.80 1008.04 1008.29 1008.51 1008.65 1008.67 1008.55 1008.31 1007.97
1021.30 1021.05 1020.75 1020.41 1020.02 1019.59 1019.14 1018.67 1018.18 1017.67 1017.15 1016.60 1016.02 1015.41 1014.77 1014.12 1013.45 1012.80 1012.18 1011.60 1011.07 1010.58 1010.12 1009.68 1009.25 1008.81 1008.37 1007.93 1007.54 1007.20 1006.97 1006.85 1006.88 1007.04 1007.32 1007.69 1008.10 1008.49 1008.81 1009.04 1009.14 1009.13 1009.01
1021.41 1021.06 1020.67 1020.23 1019.76 1019.27 1018.77 1018.27 1017.76 1017.25 1016.74 1016.20 1015.63 1015.03 1014.41 1013.75 1013.08 1012.41 1011.76 1011.14 1010.55 1009.99 1009.45 1008.93 1008.41 1007.90 1007.41 1006.94 1006.54 1006.22 1006.02 1005.96 1006.06 1006.32 1006.72 1007.23 1007.79 1008.37 1008.91 1009.36 1009.72 1009.96 1010.09
1021.36 1020.92 1020.44 1019.92 1019.38 1018.85 1018.31 1017.80 1017.29 1016.80 1016.31 1015.80 1015.27 1014.71 1014.11 1013.49 1012.83 1012.17 1011.50 1010.84 1010.20 1009.57 1008.94 1008.33 1007.72 1007.11 1006.54 1006.01 1005.56 1005.22 1005.03 1005.00 1005.16 1005.49 1005.99 1006.63 1007.35 1008.11 1008.85 1009.55 1010.16 1010.66 1011.06
1021.20 1020.68 1020.12 1019.54 1018.96 1018.39 1017.85 1017.33 1016.85 1016.38 1015.93 1015.46 1014.98 1014.46 1013.91 1013.32 1012.69 1012.05 1011.38 1010.70 1010.01 1009.31 1008.60 1007.89 1007.17 1006.47 1005.79 1005.17 1004.65 1004.27 1004.05 1004.03 1004.22 1004.61 1005.19 1005.93 1006.78 1007.70 1008.64 1009.54 1010.38 1011.14 1011.78
1021.00 1020.42 1019.81 1019.19 1018.58 1018.00 1017.46 1016.96 1016.50 1016.07 1015.65 1015.23 1014.79 1014.31 1013.80 1013.25 1012.65 1012.02 1011.36 1010.67 1009.95 1009.19 1008.41 1007.61 1006.79 1005.97 1005.19 1004.48 1003.89 1003.45 1003.19 1003.16 1003.35 1003.77 1004.41 1005.23 1006.18 1007.23 1008.31 1009.38 1010.41 1011.36 1012.21
1020.83 1020.21 1019.57 1018.93 1018.32 1017.75 1017.23 1016.75 1016.32 1015.92 1015.53 1015.14 1014.73 1014.28 1013.80 1013.27 1012.70 1012.09 1011.43 1010.73 1009.99 1009.19 1008.35 1007.47 1006.57 1005.66 1004.79 1004.00 1003.33 1002.84 1002.55 1002.49 1002.69 1003.13 1003.80 1004.67 1005.69 1006.81 1007.98 1009.16 1010.31 1011.39 1012.38
1020.76 1020.12 1019.48 1018.85 1018.25 1017.71 1017.21 1016.77 1016.37 1015.99 1015.63 1015.25 1014.84 1014.40 1013.93 1013.41 1012.84 1012.24 1011.58 1010.88 1010.11 1009.29 1008.41 1007.48 1006.52 1005.55 1004.62 1003.78 1003.06 1002.53 1002.23 1002.17 1002.37 1002.83 1003.52 1004.41 1005.45 1006.60 1007.81 1009.02 1010.21 1011.35 1012.40
1020.80 1020.17 1019.54 1018.94 1018.38 1017.88 1017.43 1017.03 1016.66 1016.30 1015.93 1015.55 1015.14 1014.68 1014.19 1013.66 1013.09 1012.47 1011.81 1011.10 1010.33 1009.50 1008.60 1007.65 1006.66 1005.67 1004.72 1003.85 1003.13 1002.60 1002.30 1002.26 1002.47 1002.95 1003.65 1004.55 1005.59 1006.72 1007.90 1009.09 1010.25 1011.36 1012.41
1020.94 1020.33 1019.73 1019.18 1018.68 1018.24 1017.84 1017.48 1017.14 1016.79 1016.43 1016.03 1015.59 1015.11 1014.59 1014.03 1013.43 1012.81 1012.14 1011.43 1010.66 1009.83 1008.93 1007.99 1007.00 1006.02 1005.08 1004.24 1003.54 1003.04 1002.78 1002.77 1003.02 1003.52 1004.23 1005.12 1006.13 1007.21 1008.32 1009.43 1010.52 1011.55 1012.53
1021.12 1020.55 1020.01 1019.52 1019.09 1018.71 1018.38 1018.06 1017.76 1017.43 1017.06 1016.64 1016.18 1015.66 1015.10 1014.50 1013.88 1013.23 1012.56 1011.85 1011.09 1010.28 1009.41 1008.49 1007.54 1006.60 1005.71 1004.91 1004.27 1003.83 1003.62 1003.66 1003.95 1004.47 1005.19 1006.05 1007.02 1008.03 1009.06 1010.06 1011.03 1011.94 1012.82
1021.28 1020.76 1020.29 1019.87 1019.52 1019.22 1018.95 1018.70 1018.42 1018.11 1017.74 1017.31 1016.81 1016.26 1015.67 1015.05 1014.40 1013.74 1013.07 1012.36 1011.63 1010.85 1010.02 1009.15 1008.26 1007.38 1006.55 1005.82 1005.25 1004.88 1004.73 1004.82 1005.15 1005.69 1006.40 1007.24 1008.15 1009.08 1010.01 1010.90 1011.74 1012.53 1013.29
1021.38 1020.92 1020.52 1020.19 1019.92 1019.70 1019.50 1019.29 1019.06 1018.76 1018.40 1017.96 1017.45 1016.87 1016.26 1015.62 1014.96 1014.30 1013.64 1012.96 1012.26 1011.52 1010.75 1009.94 1009.11 1008.31 1007.55 1006.90 1006.40 1006.09 1005.99 1006.12 1006.47 1007.01 1007.71 1008.51 1009.36 1010.21 1011.04 1011.83 1012.56 1013.24 1013.89
1021.40 1021.01 1020.68 1020.43 1020.24 1020.09 1019.95 1019.80 1019.60 1019.33 1018.97 1018.53 1018.01 1017.43 1016.81 1016.17 1015.52 1014.88 1014.24 1013.60 1012.95 1012.27 1011.56 1010.82 1010.07 1009.34 1008.65 1008.07 1007.62 1007.35 1007.29 1007.43 1007.78 1008.30 1008.96 1009.71 1010.50 1011.28 1012.03 1012.73 1013.38 1013.98 1014.56
1021.35 1021.03 1020.78 1020.60 1020.48 1020.39 1020.31 1020.20 1020.03 1019.77 1019.43 1019.00 1018.48 1017.91 1017.30 1016.68 1016.06 1015.45 1014.86 1014.28 1013.68 1013.07 1012.43 1011.77 1011.08 1010.42 1009.79 1009.25 1008.84 1008.59 1008.53 1008.66 1008.98 1009.46 1010.06 1010.74 1011.46 1012.18 1012.87 1013.51 1014.11 1014.67 1015.22
1021.28 1021.02 1020.84 1020.73 1020.67 1020.63 1020.59 1020.50 1020.35 1020.11 1019.78 1019.36 1018.86 1018.31 1017.72 1017.14 1016.56 1016.01 1015.48 1014.96 1014.43 1013.89 1013.32 1012.73 1012.11 1011.50 1010.92 1010.41 1010.02 1009.77 1009.68 1009.77 1010.03 1010.43 1010.96 1011.57 1012.22 1012.87 1013.51 1014.12 1014.70 1015.26 1015.81
1021.24 1021.05 1020.93 1020.88 1020.86 1020.86 1020.84 1020.77 1020.63 1020.40 1020.07 1019.66 1019.18 1018.66 1018.11 1017.58 1017.06 1016.57 1016.10 1015.64 1015.19 1014.72 1014.22 1013.69 1013.13 1012.56 1012.02 1011.52 1011.13 1010.85 1010.72 1010.75 1010.93 1011.25 1011.69 1012.22 1012.79 1013.39 1013.99 1014.59 1015.17 1015.75 1016.33
1021.30 1021.18 1021.12 1021.11 1021.13 1021.14 1021.13 1021.06 1020.91 1020.68 1020.36 1019.96 1019.50 1019.01 1018.51 1018.03 1017.56 1017.13 1016.73 1016.34 1015.95 1015.54 1015.10 1014.61 1014.10 1013.57 1013.05 1012.56 1012.16 1011.85 1011.67 1011.63 1011.73 1011.96 1012.31 1012.76 1013.26 1013.81 1014.38 1014.97 1015.56 1016.17 1016.79
1021.50 1021.44 1021.43 1021.46 1021.50 1021.52 1021.51 1021.43 1021.27 1021.03 1020.71 1020.32 1019.89 1019.43 1018.97 1018.53 1018.12 1017.74 1017.39 1017.05 1016.70 1016.34 1015.93 1015.49 1015.01 1014.50 1013.99 1013.52 1013.10 1012.76 1012.54 1012.44 1012.47 1012.62 1012.89 1013.26 1013.71 1014.21 1014.76 1015.33 1015.94 1016.57 1017.23
1021.86 1021.86 1021.89 1021.95 1022.00 1022.02 1022.00 1021.91 1021.73 1021.49 1021.17 1020.79 1020.38 1019.95 1019.53 1019.13 1018.75 1018.41 1018.09 1017.77 1017.45 1017.10 1016.71 1016.28 1015.82 1015.33 1014.83 1014.36 1013.93 1013.58 1013.33 1013.19 1013.17 1013.27 1013.48 1013.79 1014.18 1014.65 1015.17 1015.74 1016.35 1016.99 1017.67
1022.37 1022.41 1022.49 1022.56 1022.62 1022.64 1022.61 1022.50 1022.32 1022.07 1021.75 1021.39 1020.99 1020.59 1020.19 1019.81 1019.46 1019.13 1018.81 1018.49 1018.16 1017.80 1017.41 1016.97 1016.51 1016.02 1015.53 1015.06 1014.65 1014.30 1014.04 1013.89 1013.84 1013.91 1014.09 1014.36 1014.72 1015.15 1015.65 1016.21 1016.81 1017.46 1018.14
1022.99 1023.08 1023.19 1023.28 1023.35 1023.36 1023.32 1023.20 1023.02 1022.76 1022.45 1022.10 1021.72 1021.33 1020.95 1020.58 1020.23 1019.88 1019.54 1019.20 1018.83 1018.43 1018.00 1017.54 1017.06 1016.56 1016.08 1015.62 1015.22 1014.89 1014.65 1014.51 1014.47 1014.53 1014.70 1014.96 1015.30 1015.72 1016.20 1016.73 1017.32 1017.95 1018.62
1023.70 1023.83 1023.96 1024.07 1024.14 1024.15 1024.10 1023.98 1023.79 1023.55 1023.24 1022.91 1022.54 1022.16 1021.79 1021.41 1021.03 1020.66 1020.27 1019.87 1019.44 1018.98 1018.50 1017.99 1017.48 1016.96 1016.47 1016.03 1015.65 1015.35 1015.15 1015.04 1015.03 1015.11 1015.29 1015.56 1015.90 1016.30 1016.76 1017.28 1017.84 1018.45 1019.09
1024.45 1024.62 1024.77 1024.89 1024.96 1024.98 1024.93 1024.81 1024.62 1024.38 1024.09 1023.76 1023.41 1023.04 1022.65 1022.26 1021.85 1021.43 1020.98 1020.51 1020.01 1019.48 1018.93 1018.37 1017.81 1017.28 1016.79 1016.35 1016.00 1015.74 1015.57 1015.50 1015.53 1015.65 1015.85 1016.13 1016.47 1016.87 1017.32 1017.81 1018.34 1018.91 1019.51
1025.22 1025.41 1025.58 1025.71 1025.80 1025.81 1025.77 1025.65 1025.47 1025.24 1024.96 1024.64 1024.29 1023.92 1023.52 1023.11 1022.66 1022.19 1021.68 1021.14 1020.57 1019.97 1019.35 1018.74 1018.15 1017.59 1017.09 1016.67 1016.33 1016.10 1015.97 1015.94 1016.00 1016.15 1016.38 1016.67 1017.01 1017.40 1017.82 1018.28 1018.78 1019.31 1019.86
1025.99 1026.21 1026.39 1026.54 1026.63 1026.65 1026.61 1026.50 1026.33 1026.11 1025.83 1025.52 1025.17 1024.80 1024.39 1023.94 1023.46 1022.95 1022.39 1021.79 1021.16 1020.50 1019.84 1019.18 1018.56 1017.98 1017.48 1017.06 1016.75 1016.54 1016.43 1016.43 1016.51 1016.67 1016.91 1017.19 1017.52 1017.88 1018.28 1018.71 1019.16 1019.64 1020.14
Thickness
5522 5515 5507 5500 5494 5489 5485 5483 5481 5479 5477 5475 5474 5473 5472 5471 5469 5468 5468 5468 5469 5471 5471 5472 5474 5474 5475 5475 5476 5477 5478 5479 5484 5492 5495 5497 5495 5495 5498 5500 5502 5504 5507
5505 5499 5493 5487 5483 5478 5475 5473 5471 5468 5466 5464 5463 5462 5461 5461 5461 5461 5463 5465 5465 5467 5467 5468 5470 5471 5472 5473 5473 5475 5477 5479 5481 5487 5491 5492 5490 5490 5490 5490 5490 5492 5494
5489 5483 5479 5475 5472 5469 5466 5464 5461 5459 5458 5456 5456 5455 5455 5454 5455 5456 5458 5460 5462 5463 5465 5466 5468 5469 5471 5472 5473 5474 5476 5478 5480 5483 5487 5487 5485 5483 5482 5480 5480 5482 5484
5474 5470 5468 5466 5463 5460 5458 5456 5454 5453 5452 5452 5451 5450 5449 5449 5450 5450 5452 5455 5458 5461 5463 5465 5467 5469 5472 5474 5476 5477 5477 5478 5480 5482 5486 5485 5481 5477 5476 5474 5471 5473 5475
5462 5461 5460 5458 5456 5454 5453 5452 5450 5449 5448 5447 5445 5444 5444 5444 5444 5444 5447 5450 5454 5458 5461 5463 5467 5471 5475 5477 5480 5482 5481 5482 5485 5487 5489 5485 5479 5475 5472 5468 5467 5466 5464
5454 5454 5454 5453 5452 5451 5450 5449 5448 5446 5444 5442 5441 5440 5440 5440 5440 5440 5441 5445 5449 5454 5459 5463 5468 5472 5476 5479 5483 5486 5487 5488 5490 5493 5492 5488 5482 5477 5470 5467 5466 5466 5461
5446 5447 5448 5448 5448 5448 5448 5446 5444 5442 5440 5438 5437 5436 5435 5436 5436 5437 5440 5443 5447 5453 5457 5462 5468 5473 5477 5482 5487 5491 5493 5494 5493 5495 5496 5492 5486 5480 5474 5467 5465 5464 5460
5439 5442 5445 5445 5446 5446 5445 5443 5441 5439 5437 5435 5434 5432 5432 5432 5433 5436 5441 5444 5448 5452 5455 5460 5466 5473 5479 5484 5491 5495 5498 5499 5499 5498 5499 5496 5490 5482 5477 5471 5465 5459 5453
5438 5441 5443 5444 5444 5444 5443 5441 5439 5437 5435 5433 5431 5429 5428 5429 5431 5434 5438 5441 5444 5448 5453 5457 5463 5469 5476 5485 5494 5499 5500 5499 5500 5500 5497 5491 5483 5478 5474 5468 5464 5463 5454
5438 5441 5442 5443 5443 5442 5440 5439 5436 5433 5430 5429 5428 5426 5425 5425 5427 5429 5432 5435 5439 5443 5448 5453 5457 5462 5471 5480 5490 5495 5495 5492 5491 5489 5484 5477 5471 5467 5467 5470 5470 5468 5460
5439 5441 5442 5441 5440 5438 5436 5434 5431 5428 5426 5424 5422 5421 5419 5419 5420 5422 5424 5428 5431 5436 5441 5446 5450 5454 5462 5471 5479 5484 5485 5485 5484 5481 5476 5469 5464 5461 5460 5461 5464 5468 5466
5439 5440 5440 5439 5437 5434 5431 5428 5424 5421 5419 5416 5413 5412 5411 5411 5411 5413 5416 5419 5424 5428 5434 5439 5443 5448 5454 5461 5468 5472 5475 5477 5476 5474 5470 5465 5461 5459 5457 5457 5458 5459 5459
5441 5440 5439 5437 5433 5429 5425 5420 5417 5413 5410 5407 5404 5402 5401 5401 5401 5403 5407 5410 5415 5420 5424 5431 5437 5443 5449 5454 5459 5464 5467 5469 5469 5468 5465 5461 5457 5455 5454 5452 5451 5450 5447
5443 5442 5439 5435 5431 5427 5422 5417 5411 5406 5402 5399 5395 5392 5390 5391 5392 5394 5397 5401 5405 5410 5416 5422 5430 5436 5442 5446 5451 5456 5458 5460 5461 5459 5456 5453 5451 5450 5448 5447 5446 5444 5441
5446 5444 5440 5434 5428 5422 5418 5413 5407 5400 5394 5390 5386 5383 5384 5385 5384 5384 5386 5389 5392 5397 5404 5412 5419 5425 5431 5437 5442 5446 5448 5450 5450 5448 5446 5444 5442 5441 5440 5440 5440 5438 5434
5451 5447 5441 5434 5428 5422 5416 5410 5404 5397 5391 5385 5381 5378 5377 5377 5378 5379 5380 5381 5383 5387 5393 5396 5401 5408 5415 5422 5430 5435 5438 5439 5440 5439 5437 5434 5432 5432 5431 5430 5431 5430 5427
5453 5449 5442 5435 5428 5422 5415 5408 5400 5393 5387 5382 5378 5375 5374 5374 5373 5373 5373 5374 5375 5378 5381 5382 5385 5391 5399 5407 5415 5423 5427 5430 5432 5432 5430 5428 5426 5425 5425 5424 5424 5423 5421
5456 5451 5444 5436 5429 5421 5414 5405 5395 5388 5382 5378 5375 5373 5371 5370 5367 5365 5365 5366 5368 5369 5370 5371 5373 5378 5384 5393 5402 5411 5418 5423 5425 5426 5425 5423 5422 5421 5420 5419 5420 5419 5419
5459 5452 5445 5437 5430 5421 5413 5404 5394 5386 5380 5375 5373 5371 5368 5366 5363 5359 5357 5356 5356 5357 5359 5361 5364 5367 5373 5381 5390 5399 5407 5414 5418 5420 5420 5419 5418 5417 5416 5416 5417 5415 5417
5459 5454 5446 5438 5430 5422 5414 5405 5395 5387 5381 5376 5372 5368 5365 5363 5360 5357 5353 5349 5347 5348 5351 5354 5356 5359 5364 5371 5380 5388 5397 5404 5411 5414 5415 5415 5415 5415 5414 5414 5414 5415 5415
5458 5452 5446 5438 5430 5422 5414 5405 5396 5389 5382 5377 5371 5366 5361 5358 5355 5352 5349 5346 5344 5344 5346 5349 5351 5354 5358 5363 5371 5380 5388 5396 5403 5408 5410 5411 5412 5412 5412 5412 5412 5413 5412
5456 5450 5443 5436 5429 5422 5413 5405 5398 5390 5383 5377 5372 5367 5362 5357 5353 5349 5347 5344 5343 5343 5344 5347 5349 5351 5354 5358 5364 5372 5381 5389 5397 5402 5404 5406 5408 5409 5409 5408 5409 5409 5409
5455 5448 5441 5434 5427 5421 5414 5406 5399 5391 5384 5376 5371 5366 5362 5356 5351 5347 5345 5344 5343 5343 5345 5347 5349 5352 5354 5357 5361 5368 5376 5384 5392 5398 5400 5402 5404 5405 5405 5405 5406 5407 5407
5452 5446 5439 5433 5426 5420 5413 5406 5399 5392 5384 5377 5370 5365 5359 5353 5349 5346 5344 5344 5344 5345 5346 5348 5349 5351 5353 5357 5361 5366 5373 5381 5389 5393 5396 5398 5399 5400 5401 5402 5402 5403 5404
5450 5444 5438 5431 5425 5418 5411 5405 5398 5391 5385 5378 5371 5364 5358 5354 5349 5346 5343 5343 5343 5345 5347 5349 5349 5351 5353 5357 5361 5366 5372 5379 5385 5389 5392 5393 5395 5396 5397 5398 5399 5400 5400
5449 5443 5437 5431 5424 5417 5411 5404 5398 5391 5385 5378 5372 5366 5360 5355 5351 5347 5344 5342 5342 5344 5347 5349 5350 5352 5355 5358 5363 5367 5373 5378 5382 5386 5389 5390 5392 5393 5394 5395 5396 5397 5398